Regional Weather Roundup
Issued by NWS Jackson, KY

Home | Current Version | Previous Version | Text Only | Print | Product List | Glossary Off
Versions: 1 2 3 4 5 6 7 8 9 10 11 12 13 14 15 16 17 18 19 20 21 22 23 24 25 26 27 28 29 30 31 32 33 34 35 36 37 38 39 40 41 42 43 44 45 46 47 48 49 50

000
ASUS43 KJKL 272210
RWRJKL

EAST KENTUCKY HOURLY WEATHER ROUNDUP
NATIONAL WEATHER SERVICE JACKSON KY
500 PM EST FRI FEB 27 2015

NOTE: "FAIR" INDICATES FEW OR NO CLOUDS BELOW 12,000 FEET WITH
NO SIGNIFICANT WEATHER AND/OR OBSTRUCTIONS TO VISIBILITY.

* THESE REPORTS ARE NOT UNDER NWS QUALITY CONTROL AND MAY NOT
  REPORT WEATHER SUCH AS PRECIPITATION AND FOG.

KYZ079-080-083-085-087-088-110-112-115-119-120-272300
...EASTERN KENTUCKY...

CITY           SKY/WX    TMP DP  RH WIND       PRES   REMARKS
JACKSON        SUNNY     26   4  38 VRB3      30.50S
LONDON         SUNNY     28   5  37 VRB3      30.50S
SOMERSET*      SUNNY     23   7  50 N7        30.55F WCI  15
MONTICELLO*    SUNNY     26  10  50 E9        30.56S WCI  17
MIDDLESBORO*   SUNNY     29   9  42 CALM      30.49F
HAZARD APT*    CLEAR     28   7  40 NW5       30.51R WCI  23
BLACK MTN*       N/A     18  10  73 VRB2        N/A
PIKEVILLE APT* SUNNY     23   7  50 NW3       30.50R
BIG SANDY*     PTCLDY    26   8  47 NE7       30.52S WCI  18
MOREHEAD APT*  CLEAR     21   3  45 N6        30.58F WCI  14
$$

KYZ035-036-041-042-044-050-067-078-099-272300
...CENTRAL KENTUCKY...

CITY           SKY/WX    TMP DP  RH WIND       PRES   REMARKS
MT STERLING*   PTSUNNY   23   9  54 E9        30.58S WCI  13
FLEMING/MASON* SUNNY     21   3  45 CALM      30.58S
DANVILLE*      SUNNY     21   5  49 NE5       30.56F WCI  15
RICHMOND*      SUNNY     21   5  49 NE5       30.55S WCI  15
LEXINGTON      SUNNY     22   6  50 E5        30.57S WCI  16
FRANKFORT      SUNNY     24   1  36 VRB6      30.56F WCI  17
$$

KYZ091>093-OHZ055-061-077-WVZ005-015-034-035-042-272300
...SOUTHERN OHIO/WEST VIRGINIA...

CITY           SKY/WX    TMP DP  RH WIND       PRES   REMARKS
COVINGTON      MOSUNNY   22   1  40 CALM      30.57S
COLUMBUS       PTSUNNY   17   0  47 NW8       30.59R WCI   7
DAYTON         PTSUNNY   20   3  48 NE7       30.58S WCI  11
WILMINGTON     PTSUNNY   15  -1  49 E6        30.57R WCI   6
HUNTINGTON     CLOUDY    24   4  42 NW5       30.57S WCI  18
CHARLESTON     PTSUNNY   23   5  46 NW7       30.55S WCI  15
PINEVILLE*     MOSUNNY   25  12  58 MISG      30.51R
BECKLEY        MOSUNNY   19   6  57 N9        30.40S WCI   8
BLUEFIELD      SUNNY     24   7  48 W9        30.37R WCI  14
$$

VAZ002-007-008-TNZ017-027-036-066-071-272300
...SOUTHWEST VIRGINIA/EAST TENNESSEE...

CITY           SKY/WX    TMP DP  RH WIND       PRES   REMARKS
WISE*          SUNNY     23  10  58 NE7       30.40R WCI  15
JONESVILLE*    CLEAR     32   7  34 CALM      30.48R
ABINGDON*      MOSUNNY   31  15  51 N3        30.41R
BRISTOL        PTSUNNY   34  20  56 CALM      30.44R
KNOXVILLE      MOSUNNY   34  15  46 NE5       30.46S WCI  30
OAK RIDGE      SUNNY     36  14  40 NE7       30.48S WCI  30
CROSSVILLE     SUNNY     29   9  43 N6        30.41F WCI  23
NASHVILLE      MOSUNNY   32   9  38 NE8       30.53F WCI  25
$$

...KEY TO REMARKS...
VSB - VISIBILITY IN MILES
WCI - WIND CHILL INDEX
HX  - HEAT INDEX

$$


USA.gov is the U.S. government's official web portal to all federal, state and local government web resources and services.